FW1597 Weather Reports


time (UTC)temp
F
wind
direction
speed
knots
gust
knots
rain 1hr
in
rain 24hr
in
rain mn
in
humidity
%
barometer
mb
20260504191535 56 240 5.2 15.6 0.00 0.78 0.25 59 1000.4
20260504190031 56 317 6.1 16.5 0.00 0.78 0.25 61 1000.4
20260504184529 55 257 4.3 15.6 0.00 0.79 0.25 62 1000.1
20260504183027 55 298 4.3 17.4 0.00 0.79 0.25 65 1000.0
20260504181523 54 218 5.2 16.5 0.00 0.79 0.25 64 999.7
20260504180021 54 261 8.7 18.2 0.00 0.79 0.25 64 999.9
20260504174518 53 248 7.8 19.1 0.00 0.79 0.25 68 999.3
20260504173024 52 259 7.0 18.2 0.00 0.79 0.25 70 999.3
20260504171518 52 267 6.1 19.1 0.00 0.79 0.25 71 999.0
20260504110116 37 350 10.4 29.5 0.05 0.73 0.20 90 989.0
20260504081517 38 180 7.0 20.0 0.01 0.65 0.12 90 980.7
20260504044557 39 183 2.6 8.7 0.02 0.59 0.06 93 974.2
20260504043044 39 187 2.6 7.0 0.02 0.57 0.05 93 973.6
20260504041542 38 197 1.7 7.8 0.03 0.57 0.05 93 973.1
20260504040042 39 180 2.6 17.4 0.04 0.56 0.04 93 972.9
20260504034545 39 144 4.3 17.4 0.06 0.56 0.04 92 973.2
20260504033049 39 138 6.1 13.0 0.06 0.56 0.03 92 973.8
20260504031533 39 150 8.7 21.7 0.04 0.55 0.02 92 974.6
20260504030027 39 136 7.8 17.4 0.02 0.54 0.00 92 975.8
20260504024524 39 177 7.8 23.5 0.01 0.52 0.52 92 976.5
20260504023020 39 138 7.8 20.0 0.00 0.51 0.51 92 977.4
20260504021525 40 166 6.1 17.4 0.00 0.51 0.51 92 978.5
20260504020016 40 127 7.0 16.5 0.00 0.51 0.51 92 979.2
20260504014514 41 109 7.8 16.5 0.01 0.51 0.51 92 980.0
20260504013009 42 113 6.1 18.2 0.02 0.51 0.51 93 980.9
20260504011503 42 92 6.1 15.6 0.02 0.51 0.51 93 981.9
20260504010112 42 160 5.2 15.6 0.03 0.51 0.51 93 982.3
20260504004601 41 153 3.5 14.8 0.03 0.50 0.50 93 983.0
20260504003055 41 140 5.2 10.4 0.02 0.49 0.49 93 983.3
20260504001609 40 86 3.5 14.8 0.02 0.49 0.49 92 984.2
20260504000050 40 194 2.6 11.3 0.02 0.48 0.48 92 984.9
20260503234547 40 71 7.0 21.7 0.05 0.47 0.47 92 985.4
20260503233043 40 84 4.3 13.0 0.10 0.47 0.47 93 986.6
20260503231541 40 32 6.1 12.2 0.14 0.46 0.46 93 987.5
20260503230037 39 138 2.6 10.4 0.18 0.46 0.46 92 988.4
20260503224537 39 31 3.5 11.3 0.18 0.43 0.43 92 989.2
20260503223034 39 78 4.3 10.4 0.18 0.36 0.36 92 989.8
20260503221537 39 65 3.5 12.2 0.17 0.32 0.32 92 990.9
20260503220026 38 48 4.3 13.0 0.13 0.28 0.28 92 992.3
20260503214525 38 57 3.5 9.6 0.13 0.24 0.24 92 993.1
20260503213029 38 124 4.3 10.4 0.09 0.18 0.18 92 993.5
20260503211520 38 71 4.3 13.9 0.09 0.15 0.15 91 994.4
20260503210015 38 119 5.2 12.2 0.10 0.15 0.15 91 994.7
20260503204514 39 111 2.6 11.3 0.09 0.12 0.12 91 995.2
20260503203009 40 197 4.3 13.9 0.06 0.09 0.09 90 996.0
20260503201523 41 161 3.5 10.4 0.03 0.06 0.06 91 996.3
20260503200108 41 77 4.3 12.2 0.04 0.05 0.05 90 996.7
20260503194503 42 89 3.5 10.4 0.02 0.03 0.03 90 998.2
20260503193001 42 80 6.1 13.9 0.02 0.02 0.02 89 998.9